Simultaneous Nadir Overpasses (SNOs) Predictions

Prediction of SNOs between GOES-16 and LANDSAT-8 Satellite Orbit:

Table of predicted SNOs for the next 14.0 days since TLE Epoch: 9/21/2024
Index Date Time (GOES-16) GOES-16 Lat,Lon LANDSAT-8 Lat,Lon Distance(km) Time Diff (sec)
1 09/23/2024 03:06:06 0.06, -75.20 0.48, -73.21 225.79 80
2 09/23/2024 15:24:41 -0.06, -75.21 0.63, -78.36 358.60 80
3 09/25/2024 15:12:28 -0.06, -75.22 -0.00, -75.40 20.10 80
4 09/27/2024 15:02:55 -0.05, -75.24 -0.67, -72.44 319.61 80
5 09/28/2024 03:24:18 0.05, -75.23 -0.46, -77.62 271.17 80
6 09/30/2024 03:09:24 0.05, -75.26 0.19, -74.65 69.93 80
7 10/02/2024 02:57:09 0.05, -75.30 0.81, -71.68 412.00 80
8 10/02/2024 15:21:04 -0.05, -75.32 0.26, -76.83 171.18 80
9 10/04/2024 15:06:08 -0.05, -75.37 -0.34, -73.85 171.82 80
